IV3ONZ Weather Reports


time (UTC)temp
C
wind
direction
speed
KPH
gust
KPH
rain 1hr
cm
rain 24hr
cm
rain mn
cm
humidity
%
barometer
mb
20260503005003 10 104 0.0 3.2 0.00 0.00 0.00 72 1022.5
20260503004504 10 95 0.0 1.6 0.00 0.00 0.00 74 1022.8
20260503004003 10 0 0.0 0.0 0.00 0.00 0.00 73 1022.9
20260503003503 10 0 0.0 0.0 0.00 0.00 0.00 73 1022.9
20260503003003 10 0 0.0 0.0 0.00 0.00 0.00 72 1022.8
20260503002503 10 101 0.0 3.2 0.00 0.00 0.00 71 1023.1
20260503002217 11 89 0.0 3.2 0.00 0.00 0.00 71 1023.0
20260503001503 11 84 0.0 3.2 0.00 0.00 0.00 69 1023.0
20260503001003 11 140 0.0 3.2 0.00 0.00 0.00 67 1023.1
20260503000503 11 134 1.6 3.2 0.00 0.00 0.00 66 1023.1
20260503000219 11 127 1.6 1.6 0.00 0.00 0.00 66 1023.3
20260502235503 11 133 1.6 3.2 0.00 0.00 0.00 66 1023.1
20260502235004 11 136 1.6 3.2 0.00 0.00 0.00 65 1023.1
20260502234503 11 127 1.6 3.2 0.00 0.00 0.00 65 1023.2
20260502234216 11 124 1.6 3.2 0.00 0.00 0.00 65 1023.2
20260502233503 11 128 1.6 3.2 0.00 0.00 0.00 65 1023.3
20260502233004 12 124 1.6 4.8 0.00 0.00 0.00 65 1023.4
20260502232503 12 122 3.2 4.8 0.00 0.00 0.00 64 1023.4
20260502232003 12 122 3.2 3.2 0.00 0.00 0.00 63 1023.6
20260502231503 12 122 3.2 4.8 0.00 0.00 0.00 64 1023.4
20260502231214 12 119 3.2 4.8 0.00 0.00 0.00 63 1023.5
20260502230503 12 122 1.6 4.8 0.00 0.00 0.00 63 1023.6
20260502230004 12 124 1.6 3.2 0.00 0.00 0.00 65 1023.5
20260502225713 12 119 1.6 3.2 0.00 0.00 0.00 65 1023.5
20260502225003 12 119 1.6 3.2 0.00 0.00 0.00 64 1023.6
20260502224503 12 114 1.6 3.2 0.00 0.00 0.00 65 1023.6
20260502224003 12 114 3.2 3.2 0.00 0.00 0.00 64 1023.7
20260502223503 12 116 1.6 3.2 0.00 0.00 0.00 65 1023.8
20260502223004 12 117 1.6 3.2 0.00 0.00 0.00 64 1023.8
20260502222503 12 114 0.0 3.2 0.00 0.00 0.00 64 1023.7
20260502222003 12 118 1.6 3.2 0.00 0.00 0.00 65 1023.9
20260502221503 12 121 1.6 3.2 0.00 0.00 0.00 65 1023.8
20260502221003 12 109 1.6 3.2 0.00 0.00 0.00 64 1023.9
20260502220503 12 111 1.6 3.2 0.00 0.00 0.00 64 1023.9
20260502220004 12 134 1.6 3.2 0.00 0.00 0.00 65 1023.9
20260502215506 12 127 1.6 3.2 0.00 0.00 0.00 65 1023.9
20260502215003 12 116 1.6 3.2 0.00 0.00 0.00 66 1023.8
20260502214504 12 109 1.6 1.6 0.00 0.00 0.00 65 1023.9
20260502214003 12 109 1.6 1.6 0.00 0.00 0.00 64 1023.9
20260502213715 13 109 0.0 1.6 0.00 0.00 0.00 64 1023.9
20260502213213 12 109 0.0 1.6 0.00 0.00 0.00 63 1023.7
20260502212503 12 110 1.6 3.2 0.00 0.00 0.00 64 1024.1
20260502212004 13 113 1.6 4.8 0.00 0.00 0.00 65 1024.0
20260502211503 13 117 3.2 4.8 0.00 0.00 0.00 63 1023.9
20260502211003 13 117 3.2 4.8 0.00 0.00 0.00 62 1024.2
20260502210503 13 113 1.6 4.8 0.00 0.00 0.00 62 1023.8
20260502210004 13 115 1.6 4.8 0.00 0.00 0.00 62 1023.9
20260502205504 13 108 1.6 4.8 0.00 0.00 0.00 62 1023.9
20260502205003 13 106 3.2 4.8 0.00 0.00 0.00 63 1023.9
20260502204503 13 109 3.2 4.8 0.00 0.00 0.00 61 1023.9
20260502204003 13 110 3.2 4.8 0.00 0.00 0.00 63 1023.9
20260502203716 13 111 3.2 4.8 0.00 0.00 0.00 62 1024.0
20260502203003 14 115 3.2 6.4 0.00 0.00 0.00 62 1024.1
20260502202504 14 106 4.8 6.4 0.00 0.00 0.00 61 1024.1
20260502202003 14 99 4.8 6.4 0.00 0.00 0.00 62 1024.2
20260502201503 14 97 3.2 6.4 0.00 0.00 0.00 61 1024.1
20260502201003 15 95 4.8 9.7 0.00 0.00 0.00 60 1024.3
20260502200503 15 90 4.8 9.7 0.00 0.00 0.00 59 1024.1
20260502200004 15 87 4.8 9.7 0.00 0.00 0.00 60 1024.1
20260502195714 15 85 6.4 9.7 0.00 0.00 0.00 60 1024.1
20260502195003 15 91 4.8 9.7 0.00 0.00 0.00 59 1024.0
20260502194503 15 98 4.8 6.4 0.00 0.00 0.00 59 1023.9
20260502194004 15 103 3.2 6.4 0.00 0.00 0.00 59 1023.8
20260502193503 15 114 1.6 4.8 0.00 0.00 0.00 58 1024.1
20260502193214 15 115 1.6 4.8 0.00 0.00 0.00 58 1023.8
20260502192503 16 124 4.8 6.4 0.00 0.00 0.00 58 1024.0
20260502192003 16 124 4.8 6.4 0.00 0.00 0.00 56 1023.9
20260502191503 16 114 4.8 6.4 0.00 0.00 0.00 56 1023.7
20260502191003 16 112 4.8 6.4 0.00 0.00 0.00 56 1023.7
20260502190503 16 128 3.2 6.4 0.00 0.00 0.00 57 1023.8
20260502190217 16 140 1.6 6.4 0.00 0.00 0.00 57 1023.8
20260502185715 16 129 1.6 4.8 0.00 0.00 0.00 58 1023.8
20260502185004 16 111 3.2 4.8 0.00 0.00 0.00 58 1023.8
20260502184503 16 115 3.2 4.8 0.00 0.00 0.00 58 1023.8
20260502184004 17 131 3.2 4.8 0.00 0.00 0.00 56 1023.9
20260502183717 17 135 3.2 4.8 0.00 0.00 0.00 56 1023.5
20260502183003 17 118 4.8 6.4 0.00 0.00 0.00 56 1023.4
20260502182503 17 117 4.8 9.7 0.00 0.00 0.00 56 1023.4
20260502182216 17 120 4.8 9.7 0.00 0.00 0.00 56 1023.6
20260502181714 17 126 3.2 6.4 0.00 0.00 0.00 56 1023.4
20260502181003 17 130 4.8 6.4 0.00 0.00 0.00 56 1023.4
20260502180503 17 129 4.8 6.4 0.00 0.00 0.00 55 1023.3
20260502170503 20 159 6.4 14.5 0.00 0.00 0.00 49 1023.3
20260502164003 21 208 6.4 16.1 0.00 0.00 0.00 36 1023.3
20260502163504 22 209 6.4 12.9 0.00 0.00 0.00 36 1023.4
20260502163003 22 223 6.4 14.5 0.00 0.00 0.00 35 1023.5
20260502162714 22 227 8.0 16.1 0.00 0.00 0.00 34 1023.5
20260502162003 22 226 8.0 16.1 0.00 0.00 0.00 35 1023.5
20260502161715 22 223 6.4 12.9 0.00 0.00 0.00 35 1023.7
20260502161213 22 219 8.0 14.5 0.00 0.00 0.00 34 1023.5
20260502160503 22 205 8.0 16.1 0.00 0.00 0.00 34 1023.5
20260502152213 22 209 8.0 14.5 0.00 0.00 0.00 35 1023.8
20260502151504 22 227 8.0 14.5 0.00 0.00 0.00 35 1023.9
20260502151003 22 234 6.4 16.1 0.00 0.00 0.00 35 1024.1
20260502150503 23 231 8.0 16.1 0.00 0.00 0.00 35 1024.2
20260502130718 22 222 11.3 22.5 0.00 0.00 0.00 39 1024.9
20260502123503 22 210 9.7 16.1 0.00 0.00 0.00 36 1025.5
20260502123003 23 232 9.7 20.9 0.00 0.00 0.00 36 1025.5
20260502122503 22 236 9.7 20.9 0.00 0.00 0.00 36 1025.7
20260502122003 23 234 8.0 20.9 0.00 0.00 0.00 37 1025.7
20260502121503 23 234 6.4 20.9 0.00 0.00 0.00 36 1025.8
20260502121003 23 243 6.4 20.9 0.00 0.00 0.00 38 1025.8
20260502120504 23 246 6.4 14.5 0.00 0.00 0.00 34 1025.7
20260502115503 23 232 6.4 16.1 0.00 0.00 0.00 35 1025.9
20260502115003 23 230 6.4 16.1 0.00 0.00 0.00 35 1025.9
20260502114503 22 253 8.0 20.9 0.00 0.00 0.00 37 1026.0
20260502114003 22 245 9.7 20.9 0.00 0.00 0.00 37 1026.1
20260502113716 22 235 9.7 16.1 0.00 0.00 0.00 38 1026.1
20260502113004 22 220 9.7 16.1 0.00 0.00 0.00 37 1026.3
20260502112503 22 207 8.0 12.9 0.00 0.00 0.00 40 1026.3
20260502112003 22 247 8.0 17.7 0.00 0.00 0.00 40 1026.4
20260502111713 22 246 8.0 17.7 0.00 0.00 0.00 39 1026.2
20260502111003 22 243 9.7 16.1 0.00 0.00 0.00 41 1026.4
20260502110503 22 246 8.0 16.1 0.00 0.00 0.00 36 1026.3
20260502110004 22 241 8.0 14.5 0.00 0.00 0.00 37 1026.5
20260502105715 22 244 6.4 14.5 0.00 0.00 0.00 38 1026.6
20260502105003 22 277 6.4 17.7 0.00 0.00 0.00 37 1026.7
20260502104504 22 277 8.0 17.7 0.00 0.00 0.00 34 1026.7
20260502104003 22 275 8.0 17.7 0.00 0.00 0.00 32 1026.7
20260502103503 22 307 8.0 14.5 0.00 0.00 0.00 34 1026.9
20260502103003 22 323 6.4 14.5 0.00 0.00 0.00 33 1026.8
20260502102503 22 268 6.4 16.1 0.00 0.00 0.00 32 1026.9
20260502102003 22 254 6.4 16.1 0.00 0.00 0.00 34 1026.9
20260502101504 22 264 4.8 16.1 0.00 0.00 0.00 35 1027.0
20260502101217 22 249 4.8 14.5 0.00 0.00 0.00 33 1026.9
20260502100715 21 247 4.8 14.5 0.00 0.00 0.00 34 1027.1
20260502091503 21 145 3.2 9.7 0.00 0.00 0.00 37 1027.7
20260502091003 21 100 1.6 4.8 0.00 0.00 0.00 36 1027.6
20260502090504 20 284 3.2 6.4 0.00 0.00 0.00 34 1027.8
20260502071003 17 128 1.6 3.2 0.00 0.00 0.00 50 1028.5
20260502070717 17 116 1.6 3.2 0.00 0.00 0.00 50 1028.3
20260502070004 17 142 1.6 4.8 0.00 0.00 0.00 51 1028.5
20260502065504 16 148 1.6 4.8 0.00 0.00 0.00 53 1028.7
20260502065004 17 158 1.6 3.2 0.00 0.00 0.00 51 1028.5
20260502064506 15 158 1.6 3.2 0.00 0.00 0.00 54 1028.6
20260502064003 16 149 1.6 3.2 0.00 0.00 0.00 54 1028.7
20260502063503 15 152 1.6 3.2 0.00 0.00 0.00 57 1028.6
20260502063003 15 143 1.6 3.2 0.00 0.00 0.00 57 1028.6
20260502062503 15 119 0.0 1.6 0.00 0.00 0.00 55 1028.7
20260502062003 15 134 1.6 1.6 0.00 0.00 0.00 57 1028.6
20260502061503 13 142 1.6 1.6 0.00 0.00 0.00 60 1028.6
20260502061003 14 132 0.0 1.6 0.00 0.00 0.00 60 1028.7
20260502060503 14 123 0.0 1.6 0.00 0.00 0.00 58 1028.7
20260502060004 14 121 0.0 1.6 0.00 0.00 0.00 59 1028.7
20260502055713 14 123 0.0 1.6 0.00 0.00 0.00 60 1028.9
20260502055216 13 133 0.0 1.6 0.00 0.00 0.00 62 1028.7
20260502054503 12 111 0.0 1.6 0.00 0.00 0.00 66 1028.6
20260502054004 11 97 0.0 3.2 0.00 0.00 0.00 67 1029.0
20260502053503 11 104 0.0 3.2 0.00 0.00 0.00 69 1028.6
20260502053004 11 174 1.6 4.8 0.00 0.00 0.00 69 1028.8
20260502052503 10 199 3.2 4.8 0.00 0.00 0.00 70 1028.9
20260502052003 10 215 1.6 4.8 0.00 0.00 0.00 70 1029.0
20260502051717 10 203 1.6 3.2 0.00 0.00 0.00 70 1028.9
20260502051003 10 122 1.6 1.6 0.00 0.00 0.00 71 1028.8
20260502050503 9 122 1.6 1.6 0.00 0.00 0.00 71 1028.9
20260502050004 9 112 0.0 1.6 0.00 0.00 0.00 70 1028.9
20260502045503 9 104 0.0 1.6 0.00 0.00 0.00 71 1028.7
20260502045004 9 0 0.0 1.6 0.00 0.00 0.00 72 1028.7
20260502044504 8 127 0.0 1.6 0.00 0.00 0.00 74 1028.9
20260502044004 8 130 0.0 1.6 0.00 0.00 0.00 76 1028.8
20260502043716 8 120 0.0 1.6 0.00 0.00 0.00 76 1028.8
20260502043003 7 111 0.0 1.6 0.00 0.00 0.00 78 1028.8
20260502042503 7 0 0.0 0.0 0.00 0.00 0.00 79 1028.8
20260502042003 7 0 0.0 0.0 0.00 0.00 0.00 78 1028.7
20260502041504 7 0 0.0 0.0 0.00 0.00 0.00 77 1028.4
20260502041003 7 0 0.0 1.6 0.00 0.00 0.00 76 1028.7
20260502040503 7 59 0.0 3.2 0.00 0.00 0.00 76 1028.7
20260502040005 7 87 1.6 4.8 0.00 0.00 0.00 74 1028.6
20260502035503 8 118 1.6 4.8 0.00 0.00 0.00 73 1028.9
20260502035003 7 114 0.0 3.2 0.00 0.00 0.00 75 1028.9
20260502034715 7 109 0.0 1.6 0.00 0.00 0.00 77 1028.9
20260502034003 7 139 0.0 3.2 0.00 0.00 0.00 77 1028.9
20260502033503 7 115 0.0 3.2 0.00 0.00 0.00 76 1028.7
20260502033003 8 72 1.6 3.2 0.00 0.00 0.00 74 1028.5
20260502032503 8 76 1.6 3.2 0.00 0.00 0.00 73 1028.7
20260502032003 7 91 1.6 3.2 0.00 0.00 0.00 75 1028.6
20260502031503 7 101 1.6 3.2 0.00 0.00 0.00 79 1028.7
20260502031003 7 147 1.6 3.2 0.00 0.00 0.00 78 1028.7
20260502030503 7 170 1.6 3.2 0.00 0.00 0.00 77 1028.8
20260502030004 7 132 1.6 3.2 0.00 0.00 0.00 76 1028.8
20260502025715 8 85 1.6 6.4 0.00 0.00 0.00 75 1028.7
20260502025003 9 89 1.6 6.4 0.00 0.00 0.00 70 1028.6
20260502024503 10 118 1.6 11.3 0.00 0.00 0.00 67 1028.5
20260502024214 10 116 3.2 11.3 0.00 0.00 0.00 63 1028.8
20260502023503 8 123 1.6 11.3 0.00 0.00 0.00 69 1028.8
20260502023003 8 129 1.6 3.2 0.00 0.00 0.00 76 1028.8
20260502022503 8 127 1.6 3.2 0.00 0.00 0.00 74 1028.6
20260502022216 8 114 1.6 3.2 0.00 0.00 0.00 75 1028.4
20260502021503 7 98 1.6 3.2 0.00 0.00 0.00 77 1028.6
20260502021003 8 104 1.6 3.2 0.00 0.00 0.00 75 1028.9
20260502020503 8 101 1.6 3.2 0.00 0.00 0.00 75 1029.0
20260502020004 7 98 1.6 3.2 0.00 0.00 0.00 75 1028.6
20260502015503 8 109 1.6 3.2 0.00 0.00 0.00 75 1028.7
20260502015003 8 118 0.0 1.6 0.00 0.00 0.00 76 1028.8
20260502014717 8 123 0.0 1.6 0.00 0.00 0.00 77 1028.9
20260502014003 7 159 0.0 3.2 0.00 0.00 0.00 77 1029.0
20260502013503 7 185 1.6 3.2 0.00 0.00 0.00 77 1029.0
20260502013003 8 186 1.6 3.2 0.00 0.00 0.00 76 1028.9
20260502012503 8 167 0.0 3.2 0.00 0.00 0.00 72 1028.8
20260502012003 8 148 0.0 1.6 0.00 0.00 0.00 74 1028.7
20260502011714 8 148 0.0 3.2 0.00 0.00 0.00 74 1028.9
20260502011212 8 151 1.6 3.2 0.00 0.00 0.00 73 1028.9
20260502010716 8 148 0.0 3.2 0.00 0.00 0.00 73 1028.9
20260502010219 9 133 0.0 1.6 0.00 0.00 0.00 71 1028.9
20260502005716 10 114 0.0 1.6 0.00 0.00 0.00 68 1028.8